Location: ??
(35.4032°N, 139.3073°E)
Time: 13:35:20
(UTC+00:00)

PAYLOAD A - Pass Details

Date: 13 April 2024
Orbit: 690 x 831 km, 98.5° (Epoch: 26 May)

Event Time Altitude Azimuth Distance (km) Brightness Sun altitude
Rises 18:07:58 0° 16° (NNE) 3,187 7.9 -24.1°
Reaches altitude 10° 18:10:19 10° 19° (NNE) 2,239 7.1 -23.7°
Maximum altitude 18:15:11 66° 101° (ESE) 777 4.1 -22.9°
Enters shadow 18:17:16 33° 174° (S) 1,187 4.7 -22.5°
